| time (UTC) | temp F | wind direction | speed MPH | gust MPH | rain 1hr in | rain 24hr in | rain mn in | humidity % | barometer mb |
| 20260904015434 | 72 | 32 | 0.0 | 0.0 | 0.00 | 0.04 | 0.01 | 89 | 1012.5 |
| 20260904014934 | 73 | 30 | 0.0 | 0.0 | 0.00 | 0.04 | 0.01 | 89 | 1012.4 |
| 20260904014432 | 73 | 30 | 0.0 | 0.0 | 0.00 | 0.04 | 0.01 | 89 | 1012.4 |
| 20260904013931 | 73 | 30 | 0.0 | 0.0 | 0.00 | 0.05 | 0.01 | 89 | 1012.4 |
| 20260904013429 | 73 | 32 | 0.0 | 0.0 | 0.00 | 0.07 | 0.01 | 89 | 1012.3 |
| 20260904012930 | 73 | 29 | 0.0 | 0.0 | 0.00 | 0.08 | 0.01 | 89 | 1012.3 |
| 20260904012430 | 73 | 30 | 0.0 | 0.0 | 0.00 | 0.08 | 0.01 | 88 | 1012.4 |
| 20260904011929 | 73 | 30 | 0.0 | 0.0 | 0.01 | 0.08 | 0.01 | 88 | 1012.3 |
| 20260904011430 | 73 | 29 | 0.0 | 0.0 | 0.01 | 0.08 | 0.01 | 88 | 1012.1 |
| 20260904010929 | 73 | 29 | 0.0 | 0.0 | 0.01 | 0.08 | 0.01 | 88 | 1012.4 |
| 20260904010429 | 73 | 28 | 0.0 | 0.0 | 0.01 | 0.09 | 0.01 | 88 | 1012.4 |
| 20260904005930 | 74 | 28 | 0.0 | 0.0 | 0.01 | 0.09 | 0.01 | 88 | 1012.3 |
| 20260904005429 | 74 | 26 | 0.0 | 0.0 | 0.01 | 0.09 | 0.01 | 88 | 1012.0 |
| 20260904004929 | 74 | 28 | 0.0 | 0.0 | 0.01 | 0.09 | 0.01 | 88 | 1011.9 |
| 20260904004429 | 74 | 28 | 0.0 | 0.0 | 0.01 | 0.10 | 0.01 | 88 | 1012.0 |
| 20260904003928 | 74 | 29 | 0.0 | 0.0 | 0.01 | 0.11 | 0.01 | 88 | 1012.0 |
| 20260904003429 | 75 | 28 | 0.0 | 0.0 | 0.01 | 0.12 | 0.01 | 88 | 1012.0 |
| 20260904002929 | 75 | 29 | 0.0 | 0.0 | 0.01 | 0.14 | 0.01 | 88 | 1011.9 |
| 20260904002430 | 75 | 29 | 0.0 | 0.0 | 0.01 | 0.15 | 0.01 | 87 | 1011.8 |
| 20260904001929 | 75 | 26 | 0.0 | 0.0 | 0.00 | 0.15 | 0.00 | 87 | 1011.9 |
| 20260904001429 | 75 | 25 | 0.0 | 0.0 | 0.00 | 0.15 | 0.00 | 86 | 1011.8 |
| 20260904000928 | 76 | 30 | 0.0 | 0.0 | 0.00 | 0.16 | 0.00 | 86 | 1011.5 |
| 20260904000429 | 76 | 30 | 0.0 | 0.0 | 0.00 | 0.16 | 0.00 | 86 | 1011.6 |
| 20260903235929 | 76 | 31 | 0.0 | 0.0 | 0.00 | 0.17 | 0.00 | 86 | 1011.6 |
| 20260903235429 | 76 | 32 | 0.0 | 0.0 | 0.00 | 0.30 | 0.00 | 86 | 1011.5 |
| 20260903234929 | 76 | 30 | 0.0 | 0.0 | 0.00 | 0.32 | 0.00 | 85 | 1011.5 |
| 20260903234429 | 76 | 30 | 0.0 | 0.0 | 0.00 | 0.33 | 0.00 | 85 | 1011.5 |
| 20260903233929 | 76 | 30 | 0.0 | 0.0 | 0.00 | 0.36 | 0.00 | 85 | 1011.5 |
| 20260903233429 | 76 | 30 | 0.0 | 0.0 | 0.00 | 0.50 | 0.00 | 85 | 1011.7 |
| 20260903232929 | 76 | 32 | 0.0 | 0.0 | 0.00 | 0.64 | 0.00 | 85 | 1011.7 |
| 20260903232430 | 76 | 229 | 0.0 | 0.0 | 0.00 | 0.78 | 0.00 | 85 | 1011.6 |
| 20260903231929 | 76 | 229 | 0.0 | 0.0 | 0.00 | 0.96 | 0.00 | 84 | 1011.6 |
| 20260903231429 | 76 | 229 | 0.0 | 0.0 | 0.00 | 1.12 | 0.00 | 84 | 1011.7 |
| 20260903230929 | 76 | 229 | 0.0 | 0.0 | 0.00 | 1.17 | 0.00 | 84 | 1011.6 |
| 20260903230426 | 76 | 229 | 0.0 | 0.0 | 0.00 | 1.18 | 0.00 | 84 | 1011.6 |
| 20260903225920 | 76 | 229 | 0.0 | 0.0 | 0.00 | 1.18 | 0.00 | 84 | 1011.6 |
| 20260903225414 | 76 | 229 | 0.0 | 0.0 | 0.00 | 1.18 | 0.00 | 83 | 1011.5 |
| 20260903224910 | 77 | 229 | 0.0 | 0.0 | 0.00 | 1.18 | 0.00 | 83 | 1011.6 |
| 20260903224410 | 77 | 229 | 0.0 | 0.0 | 0.00 | 1.18 | 0.00 | 83 | 1011.5 |
| 20260903223910 | 77 | 229 | 0.0 | 0.0 | 0.00 | 1.18 | 0.00 | 83 | 1011.5 |
| 20260903223408 | 77 | 229 | 0.0 | 0.0 | 0.00 | 1.18 | 0.00 | 83 | 1011.4 |
| 20260903222908 | 77 | 229 | 0.0 | 0.0 | 0.00 | 1.18 | 0.00 | 82 | 1011.4 |
| 20260903222407 | 77 | 229 | 0.0 | 0.0 | 0.00 | 1.18 | 0.00 | 83 | 1011.3 |
| 20260903221906 | 77 | 229 | 0.0 | 0.0 | 0.00 | 1.18 | 0.00 | 82 | 1011.2 |
| 20260903221406 | 77 | 229 | 0.0 | 0.0 | 0.00 | 1.18 | 0.00 | 83 | 1011.4 |
| 20260903220906 | 77 | 229 | 0.0 | 0.0 | 0.00 | 1.18 | 0.00 | 82 | 1011.2 |
| 20260903220406 | 77 | 229 | 0.0 | 0.0 | 0.00 | 1.18 | 0.00 | 82 | 1011.1 |
| 20260903215906 | 77 | 229 | 0.0 | 0.0 | 0.00 | 1.18 | 0.00 | 82 | 1011.2 |
| 20260903215402 | 77 | 229 | 0.0 | 0.0 | 0.00 | 1.18 | 0.00 | 82 | 1011.2 |
| 20260903214902 | 78 | 229 | 0.0 | 0.0 | 0.00 | 1.18 | 0.00 | 81 | 1011.2 |
| 20260903214402 | 78 | 229 | 0.0 | 0.0 | 0.00 | 1.18 | 0.00 | 81 | 1011.2 |
| 20260903213902 | 78 | 230 | 0.0 | 0.0 | 0.00 | 1.18 | 0.00 | 80 | 1011.3 |
| 20260903213402 | 79 | 230 | 0.0 | 0.0 | 0.00 | 1.18 | 0.00 | 81 | 1011.2 |
| 20260903212902 | 79 | 230 | 0.0 | 0.0 | 0.00 | 1.18 | 0.00 | 80 | 1011.3 |
| 20260903212403 | 79 | 230 | 0.0 | 0.0 | 0.00 | 1.18 | 0.00 | 80 | 1011.3 |
| 20260903211902 | 79 | 230 | 0.0 | 0.0 | 0.00 | 1.18 | 0.00 | 78 | 1011.5 |
| 20260903211402 | 79 | 230 | 0.0 | 0.0 | 0.00 | 1.18 | 0.00 | 79 | 1011.5 |
| 20260903210902 | 80 | 230 | 0.0 | 0.0 | 0.00 | 1.18 | 0.00 | 78 | 1011.7 |
| 20260903210402 | 79 | 230 | 0.0 | 0.0 | 0.00 | 1.18 | 0.00 | 78 | 1011.7 |
| 20260903205902 | 79 | 230 | 0.0 | 0.0 | 0.00 | 1.18 | 0.00 | 78 | 1011.6 |
| 20260903205402 | 79 | 230 | 0.0 | 0.0 | 0.00 | 1.18 | 0.00 | 80 | 1011.5 |
| 20260903204901 | 79 | 230 | 0.0 | 0.0 | 0.00 | 1.18 | 0.00 | 79 | 1011.5 |
| 20260903204400 | 79 | 230 | 0.0 | 0.0 | 0.00 | 1.18 | 0.00 | 78 | 1011.6 |
| 20260903203901 | 79 | 230 | 0.0 | 0.0 | 0.00 | 1.18 | 0.00 | 78 | 1011.6 |
| 20260903203401 | 79 | 230 | 0.0 | 0.0 | 0.00 | 1.18 | 0.00 | 79 | 1011.6 |
| 20260903202901 | 79 | 230 | 0.0 | 0.0 | 0.00 | 1.18 | 0.00 | 78 | 1011.6 |
| 20260903202401 | 79 | 230 | 0.0 | 0.0 | 0.00 | 1.18 | 0.00 | 77 | 1011.7 |
| 20260903201901 | 79 | 230 | 0.0 | 0.0 | 0.00 | 1.18 | 0.00 | 78 | 1011.8 |
| 20260903201355 | 79 | 230 | 0.0 | 0.0 | 0.00 | 1.18 | 0.00 | 78 | 1011.8 |
| 20260903200849 | 78 | 230 | 0.0 | 0.0 | 0.00 | 1.18 | 0.00 | 78 | 1011.8 |
| 20260903200350 | 78 | 230 | 0.0 | 0.0 | 0.00 | 1.18 | 0.00 | 77 | 1011.8 |
| 20260903195848 | 78 | 230 | 0.0 | 0.0 | 0.00 | 1.18 | 0.00 | 78 | 1011.8 |
| 20260903195345 | 78 | 230 | 0.0 | 0.0 | 0.00 | 1.18 | 0.00 | 78 | 1011.9 |
| 20260903194844 | 78 | 230 | 0.0 | 0.0 | 0.00 | 1.18 | 0.00 | 80 | 1011.9 |
| 20260903194342 | 77 | 230 | 0.0 | 0.0 | 0.00 | 1.18 | 0.00 | 79 | 1011.9 |
| 20260903193840 | 77 | 230 | 0.0 | 0.0 | 0.00 | 1.18 | 0.00 | 79 | 1011.9 |
| 20260903193338 | 77 | 230 | 0.0 | 0.0 | 0.00 | 1.18 | 0.00 | 78 | 1012.0 |
| 20260903192836 | 78 | 229 | 0.0 | 0.0 | 0.00 | 1.18 | 0.00 | 80 | 1011.9 |
| 20260903192334 | 78 | 229 | 0.0 | 0.0 | 0.00 | 1.18 | 0.00 | 81 | 1011.9 |
| 20260903191830 | 78 | 229 | 0.0 | 0.0 | 0.00 | 1.18 | 0.00 | 80 | 1011.9 |
| 20260903191329 | 78 | 229 | 0.0 | 0.0 | 0.00 | 1.18 | 0.00 | 79 | 1011.9 |
| 20260903190829 | 79 | 229 | 0.0 | 0.0 | 0.00 | 1.18 | 0.00 | 78 | 1011.9 |
| 20260903190329 | 79 | 229 | 0.0 | 0.0 | 0.00 | 1.18 | 0.00 | 78 | 1011.9 |
| 20260903185830 | 80 | 229 | 0.0 | 0.0 | 0.00 | 1.18 | 0.00 | 78 | 1011.8 |
| 20260903185329 | 80 | 229 | 0.0 | 0.0 | 0.00 | 1.18 | 0.00 | 79 | 1011.8 |
| 20260903184829 | 79 | 229 | 0.0 | 0.0 | 0.00 | 1.18 | 0.00 | 80 | 1011.8 |
| 20260903184330 | 79 | 229 | 0.0 | 0.0 | 0.00 | 1.18 | 0.00 | 79 | 1011.9 |
| 20260903183829 | 79 | 230 | 0.0 | 0.0 | 0.00 | 1.18 | 0.00 | 77 | 1012.0 |
| 20260903183330 | 80 | 230 | 0.0 | 0.0 | 0.00 | 1.18 | 0.00 | 76 | 1012.0 |
| 20260903182829 | 80 | 230 | 0.0 | 0.0 | 0.00 | 1.18 | 0.00 | 76 | 1012.1 |
| 20260903182330 | 81 | 230 | 0.0 | 0.0 | 0.00 | 1.18 | 0.00 | 73 | 1012.4 |
| 20260903181828 | 81 | 230 | 0.0 | 1.0 | 0.00 | 1.18 | 0.00 | 71 | 1012.1 |
| 20260903181331 | 82 | 229 | 0.0 | 2.0 | 0.00 | 1.18 | 0.00 | 69 | 1012.1 |
| 20260903180829 | 83 | 230 | 0.0 | 2.0 | 0.00 | 1.18 | 0.00 | 66 | 1012.0 |
| 20260903180330 | 83 | 230 | 0.0 | 0.0 | 0.00 | 1.18 | 0.00 | 65 | 1011.9 |
| 20260903175830 | 83 | 230 | 0.0 | 0.0 | 0.00 | 1.18 | 0.00 | 68 | 1012.0 |
| 20260903175330 | 82 | 231 | 0.0 | 0.0 | 0.00 | 1.18 | 0.00 | 68 | 1012.0 |
| 20260903174830 | 82 | 230 | 0.0 | 1.0 | 0.00 | 1.18 | 0.00 | 66 | 1012.0 |
| 20260903174330 | 83 | 230 | 0.0 | 1.0 | 0.00 | 1.18 | 0.00 | 66 | 1012.1 |
| 20260903173829 | 83 | 234 | 0.0 | 0.0 | 0.00 | 1.18 | 0.00 | 67 | 1012.1 |
| 20260903173331 | 83 | 234 | 0.0 | 3.0 | 0.00 | 1.18 | 0.00 | 66 | 1012.1 |
| 20260903172829 | 82 | 234 | 0.0 | 4.0 | 0.00 | 1.18 | 0.00 | 66 | 1012.3 |
| 20260903172333 | 83 | 234 | 0.0 | 4.0 | 0.00 | 1.18 | 0.00 | 66 | 1012.3 |
| 20260903171829 | 83 | 234 | 0.0 | 2.0 | 0.00 | 1.18 | 0.00 | 64 | 1012.1 |
| 20260903171331 | 83 | 234 | 0.0 | 3.0 | 0.00 | 1.18 | 0.00 | 64 | 1012.1 |
| 20260903170829 | 83 | 227 | 0.0 | 3.0 | 0.00 | 1.18 | 0.00 | 66 | 1012.0 |
| 20260903170330 | 82 | 227 | 0.0 | 2.0 | 0.00 | 1.18 | 0.00 | 64 | 1012.1 |
| 20260903165823 | 83 | 231 | 0.0 | 1.0 | 0.00 | 1.18 | 0.00 | 64 | 1012.3 |
| 20260903165317 | 83 | 231 | 0.0 | 1.0 | 0.00 | 1.18 | 0.00 | 64 | 1012.3 |
| 20260903164811 | 83 | 230 | 0.0 | 0.0 | 0.00 | 1.18 | 0.00 | 66 | 1012.4 |
| 20260903164312 | 82 | 230 | 0.0 | 0.0 | 0.00 | 1.18 | 0.00 | 65 | 1012.3 |
| 20260903163812 | 82 | 229 | 0.0 | 0.0 | 0.00 | 1.18 | 0.00 | 65 | 1012.3 |
| 20260903163312 | 81 | 229 | 0.0 | 0.0 | 0.00 | 1.18 | 0.00 | 64 | 1012.4 |
| 20260903162809 | 81 | 229 | 0.0 | 0.0 | 0.00 | 1.18 | 0.00 | 63 | 1012.5 |
| 20260903162307 | 82 | 229 | 0.0 | 0.0 | 0.00 | 1.18 | 0.00 | 64 | 1012.5 |
| 20260903161807 | 82 | 229 | 0.0 | 0.0 | 0.00 | 1.18 | 0.00 | 63 | 1012.5 |
| 20260903161307 | 81 | 230 | 0.0 | 0.0 | 0.00 | 1.18 | 0.00 | 65 | 1012.6 |
| 20260903160808 | 80 | 230 | 0.0 | 0.0 | 0.00 | 1.18 | 0.00 | 62 | 1012.7 |
| 20260903160307 | 80 | 230 | 0.0 | 0.0 | 0.00 | 1.18 | 0.00 | 63 | 1012.8 |
| 20260903155805 | 80 | 231 | 0.0 | 1.0 | 0.00 | 1.18 | 0.00 | 65 | 1012.8 |
| 20260903155306 | 80 | 229 | 0.0 | 1.0 | 0.00 | 1.18 | 0.00 | 64 | 1012.9 |
| 20260903154805 | 80 | 229 | 0.0 | 4.0 | 0.00 | 1.18 | 0.00 | 67 | 1012.9 |
| 20260903154303 | 79 | 229 | 0.0 | 4.0 | 0.00 | 1.18 | 0.00 | 67 | 1013.0 |
| 20260903153802 | 79 | 228 | 0.0 | 3.0 | 0.00 | 1.18 | 0.00 | 69 | 1013.0 |
| 20260903153303 | 78 | 231 | 0.0 | 3.0 | 0.00 | 1.18 | 0.00 | 72 | 1013.1 |
| 20260903152802 | 78 | 229 | 0.0 | 1.0 | 0.00 | 1.18 | 0.00 | 73 | 1013.1 |
| 20260903152306 | 78 | 229 | 0.0 | 7.0 | 0.00 | 1.18 | 0.00 | 74 | 1013.1 |
| 20260903151802 | 77 | 229 | 0.0 | 7.0 | 0.00 | 1.18 | 0.00 | 76 | 1013.1 |
| 20260903151303 | 77 | 229 | 0.0 | 2.0 | 0.00 | 1.18 | 0.00 | 78 | 1013.1 |
| 20260903150802 | 77 | 230 | 0.0 | 2.0 | 0.00 | 1.18 | 0.00 | 79 | 1013.1 |
| 20260903150302 | 77 | 242 | 0.0 | 1.0 | 0.00 | 1.18 | 0.00 | 82 | 1013.1 |
| 20260903145802 | 77 | 242 | 0.0 | 1.0 | 0.00 | 1.18 | 0.00 | 82 | 1013.2 |
| 20260903145305 | 76 | 242 | 0.0 | 3.0 | 0.00 | 1.18 | 0.00 | 82 | 1013.2 |
| 20260903144801 | 76 | 242 | 0.0 | 3.0 | 0.00 | 1.18 | 0.00 | 82 | 1013.2 |
| 20260903144300 | 76 | 234 | 0.0 | 3.0 | 0.00 | 1.18 | 0.00 | 82 | 1013.3 |
| 20260903143800 | 76 | 234 | 0.0 | 4.0 | 0.00 | 1.18 | 0.00 | 82 | 1013.3 |
| 20260903143300 | 76 | 219 | 0.0 | 4.0 | 0.00 | 1.18 | 0.00 | 84 | 1013.3 |
| 20260903142800 | 76 | 227 | 0.0 | 2.0 | 0.00 | 1.18 | 0.00 | 84 | 1013.4 |
| 20260903142300 | 75 | 238 | 0.0 | 2.0 | 0.00 | 1.18 | 0.00 | 84 | 1013.3 |
| 20260903141800 | 75 | 237 | 0.0 | 2.0 | 0.00 | 1.18 | 0.00 | 84 | 1013.3 |
| 20260903141300 | 75 | 232 | 0.0 | 2.0 | 0.00 | 1.18 | 0.00 | 84 | 1013.3 |
| 20260903140800 | 75 | 238 | 0.0 | 2.0 | 0.00 | 1.18 | 0.00 | 84 | 1013.2 |
| 20260903140258 | 75 | 237 | 0.0 | 2.0 | 0.00 | 1.18 | 0.00 | 84 | 1013.2 |
| 20260903135758 | 75 | 237 | 0.0 | 1.0 | 0.00 | 1.18 | 0.00 | 84 | 1013.1 |
| 20260903135258 | 75 | 242 | 0.0 | 0.0 | 0.00 | 1.18 | 0.00 | 84 | 1013.0 |
| 20260903134758 | 75 | 242 | 0.0 | 0.0 | 0.00 | 1.18 | 0.00 | 85 | 1012.9 |
| 20260903134258 | 75 | 242 | 0.0 | 0.0 | 0.00 | 1.18 | 0.00 | 85 | 1013.0 |
| 20260903133759 | 75 | 239 | 0.0 | 0.0 | 0.00 | 1.18 | 0.00 | 86 | 1013.1 |
| 20260903133258 | 74 | 240 | 0.0 | 0.0 | 0.00 | 1.18 | 0.00 | 86 | 1013.1 |
| 20260903132754 | 74 | 240 | 0.0 | 0.0 | 0.00 | 1.18 | 0.00 | 86 | 1013.2 |
| 20260903132254 | 74 | 239 | 0.0 | 1.0 | 0.00 | 1.18 | 0.00 | 86 | 1013.2 |
| 20260903131754 | 74 | 239 | 0.0 | 4.0 | 0.00 | 1.18 | 0.00 | 87 | 1013.2 |
| 20260903131255 | 74 | 259 | 0.0 | 4.0 | 0.00 | 1.18 | 0.00 | 87 | 1013.3 |
| 20260903130752 | 74 | 236 | 0.0 | 0.0 | 0.00 | 1.18 | 0.00 | 88 | 1013.4 |
| 20260903130252 | 74 | 233 | 0.0 | 0.0 | 0.00 | 1.18 | 0.00 | 89 | 1013.3 |
| 20260903125752 | 73 | 233 | 0.0 | 0.0 | 0.00 | 1.18 | 0.00 | 89 | 1013.3 |
| 20260903125252 | 73 | 231 | 0.0 | 0.0 | 0.00 | 1.18 | 0.00 | 89 | 1013.3 |
| 20260903124752 | 73 | 229 | 0.0 | 0.0 | 0.00 | 1.18 | 0.00 | 90 | 1013.4 |
| 20260903124250 | 72 | 229 | 0.0 | 1.0 | 0.00 | 1.20 | 0.00 | 90 | 1013.4 |
| 20260903123748 | 72 | 227 | 0.0 | 1.0 | 0.00 | 1.23 | 0.00 | 90 | 1013.3 |
| 20260903123246 | 72 | 242 | 0.0 | 0.0 | 0.00 | 1.25 | 0.00 | 90 | 1013.4 |
| 20260903122745 | 71 | 243 | 0.0 | 0.0 | 0.00 | 1.33 | 0.00 | 90 | 1013.3 |
| 20260903122242 | 71 | 246 | 0.0 | 1.0 | 0.00 | 1.38 | 0.00 | 90 | 1013.3 |
| 20260903121742 | 71 | 236 | 0.0 | 1.0 | 0.00 | 1.41 | 0.00 | 90 | 1013.3 |
| 20260903120738 | 71 | 15 | 0.0 | 0.0 | 0.00 | 1.41 | 0.00 | 90 | 1013.0 |
| 20260903120238 | 70 | 22 | 0.0 | 0.0 | 0.00 | 1.41 | 0.00 | 90 | 1012.9 |
| 20260903115738 | 70 | 17 | 0.0 | 0.0 | 0.00 | 1.41 | 0.00 | 90 | 1012.9 |
| 20260903115236 | 70 | 240 | 0.0 | 0.0 | 0.00 | 1.41 | 0.00 | 90 | 1012.9 |
| 20260903114734 | 70 | 16 | 0.0 | 0.0 | 0.00 | 1.41 | 0.00 | 90 | 1012.8 |
| 20260903114233 | 70 | 18 | 0.0 | 0.0 | 0.00 | 1.41 | 0.00 | 90 | 1012.8 |
| 20260903113730 | 70 | 19 | 0.0 | 0.0 | 0.00 | 1.41 | 0.00 | 90 | 1012.8 |
| 20260903113231 | 69 | 19 | 0.0 | 0.0 | 0.00 | 1.41 | 0.00 | 90 | 1012.8 |
| 20260903112731 | 69 | 23 | 0.0 | 0.0 | 0.00 | 1.41 | 0.00 | 90 | 1012.8 |
| 20260903112231 | 69 | 26 | 0.0 | 0.0 | 0.00 | 1.41 | 0.00 | 90 | 1012.8 |
| 20260903111731 | 69 | 24 | 0.0 | 0.0 | 0.00 | 1.41 | 0.00 | 90 | 1012.6 |
| 20260903111225 | 69 | 27 | 0.0 | 0.0 | 0.00 | 1.41 | 0.00 | 90 | 1012.6 |
| 20260903110720 | 69 | 24 | 0.0 | 0.0 | 0.00 | 1.41 | 0.00 | 90 | 1012.6 |
| 20260903110213 | 69 | 24 | 0.0 | 0.0 | 0.00 | 1.41 | 0.00 | 90 | 1012.5 |
| 20260903105710 | 69 | 24 | 0.0 | 0.0 | 0.00 | 1.41 | 0.00 | 90 | 1012.4 |
| 20260903105210 | 69 | 24 | 0.0 | 0.0 | 0.00 | 1.41 | 0.00 | 90 | 1012.5 |
| 20260903104710 | 69 | 24 | 0.0 | 0.0 | 0.00 | 1.41 | 0.00 | 90 | 1012.4 |
| 20260903104210 | 69 | 24 | 0.0 | 0.0 | 0.00 | 1.41 | 0.00 | 89 | 1012.4 |
| 20260903103710 | 69 | 21 | 0.0 | 0.0 | 0.00 | 1.41 | 0.00 | 89 | 1012.3 |
| 20260903103208 | 69 | 21 | 0.0 | 1.0 | 0.00 | 1.41 | 0.00 | 89 | 1012.1 |
| 20260903102708 | 69 | 22 | 0.0 | 1.0 | 0.00 | 1.41 | 0.00 | 89 | 1012.3 |
| 20260903102208 | 69 | 21 | 0.0 | 0.0 | 0.00 | 1.41 | 0.00 | 89 | 1012.1 |
| 20260903101708 | 69 | 22 | 0.0 | 0.0 | 0.00 | 1.41 | 0.00 | 89 | 1012.0 |
| 20260903101207 | 69 | 22 | 0.0 | 0.0 | 0.00 | 1.41 | 0.00 | 89 | 1011.9 |
| 20260903100706 | 69 | 22 | 0.0 | 0.0 | 0.00 | 1.41 | 0.00 | 89 | 1011.8 |
| 20260903100206 | 69 | 22 | 0.0 | 0.0 | 0.00 | 1.41 | 0.00 | 89 | 1011.8 |
| 20260903095706 | 69 | 22 | 0.0 | 0.0 | 0.00 | 1.41 | 0.00 | 88 | 1011.7 |
| 20260903095206 | 69 | 22 | 0.0 | 0.0 | 0.00 | 1.41 | 0.00 | 88 | 1011.8 |
| 20260903094706 | 68 | 22 | 0.0 | 0.0 | 0.00 | 1.41 | 0.00 | 89 | 1011.7 |
| 20260903094205 | 68 | 22 | 0.0 | 0.0 | 0.00 | 1.41 | 0.00 | 89 | 1011.7 |
| 20260903093707 | 68 | 22 | 0.0 | 0.0 | 0.00 | 1.41 | 0.00 | 89 | 1011.8 |
| 20260903093201 | 68 | 22 | 0.0 | 0.0 | 0.00 | 1.41 | 0.00 | 89 | 1011.7 |
| 20260903092656 | 68 | 22 | 0.0 | 0.0 | 0.00 | 1.41 | 0.00 | 89 | 1011.8 |
| 20260903092148 | 68 | 23 | 0.0 | 0.0 | 0.00 | 1.41 | 0.00 | 89 | 1011.9 |
| 20260903091643 | 68 | 23 | 0.0 | 0.0 | 0.00 | 1.41 | 0.00 | 88 | 1011.8 |
| 20260903091144 | 68 | 24 | 0.0 | 0.0 | 0.00 | 1.41 | 0.00 | 88 | 1011.9 |
| 20260903090641 | 68 | 24 | 0.0 | 0.0 | 0.00 | 1.41 | 0.00 | 89 | 1011.8 |
| 20260903090141 | 68 | 25 | 0.0 | 0.0 | 0.00 | 1.41 | 0.00 | 89 | 1011.9 |
| 20260903085642 | 68 | 26 | 0.0 | 0.0 | 0.00 | 1.41 | 0.00 | 89 | 1011.9 |
| 20260903085139 | 68 | 26 | 0.0 | 0.0 | 0.00 | 1.41 | 0.00 | 89 | 1011.8 |
| 20260903084637 | 68 | 27 | 0.0 | 0.0 | 0.00 | 1.41 | 0.00 | 89 | 1011.8 |
| 20260903084136 | 67 | 27 | 0.0 | 0.0 | 0.00 | 1.41 | 0.00 | 89 | 1011.8 |
| 20260903083634 | 67 | 28 | 0.0 | 0.0 | 0.00 | 1.41 | 0.00 | 89 | 1011.8 |
| 20260903083133 | 68 | 30 | 0.0 | 0.0 | 0.00 | 1.41 | 0.00 | 89 | 1011.8 |
| 20260903082635 | 68 | 29 | 0.0 | 0.0 | 0.00 | 1.41 | 0.00 | 89 | 1011.8 |
| 20260903082134 | 68 | 28 | 0.0 | 0.0 | 0.00 | 1.41 | 0.00 | 89 | 1011.8 |
| 20260903081633 | 68 | 28 | 0.0 | 0.0 | 0.00 | 1.41 | 0.00 | 89 | 1011.7 |
| 20260903081136 | 68 | 28 | 0.0 | 0.0 | 0.00 | 1.41 | 0.00 | 89 | 1011.7 |
| 20260903080632 | 68 | 27 | 0.0 | 0.0 | 0.00 | 1.41 | 0.00 | 89 | 1011.7 |
| 20260903080131 | 68 | 26 | 0.0 | 0.0 | 0.00 | 1.41 | 0.00 | 89 | 1011.7 |
| 20260903075632 | 68 | 25 | 0.0 | 0.0 | 0.00 | 1.41 | 0.00 | 89 | 1011.6 |
| 20260903075131 | 68 | 26 | 0.0 | 0.0 | 0.00 | 1.41 | 0.00 | 89 | 1011.6 |
| 20260903074631 | 68 | 26 | 0.0 | 0.0 | 0.00 | 1.41 | 0.00 | 89 | 1011.5 |
| 20260903074130 | 68 | 26 | 0.0 | 0.0 | 0.00 | 1.41 | 0.00 | 90 | 1011.5 |
| 20260903073631 | 68 | 25 | 0.0 | 0.0 | 0.00 | 1.41 | 0.00 | 90 | 1011.4 |
| 20260903073129 | 68 | 28 | 0.0 | 0.0 | 0.00 | 1.41 | 0.00 | 90 | 1011.4 |
| 20260903072627 | 68 | 28 | 0.0 | 0.0 | 0.00 | 1.41 | 0.00 | 90 | 1011.4 |
| 20260903072127 | 68 | 26 | 0.0 | 0.0 | 0.00 | 1.41 | 0.00 | 90 | 1011.4 |
| 20260903071628 | 69 | 26 | 0.0 | 0.0 | 0.00 | 1.41 | 0.00 | 90 | 1011.5 |
| 20260903071131 | 69 | 26 | 0.0 | 0.0 | 0.00 | 1.41 | 0.00 | 90 | 1011.6 |
| 20260903070623 | 69 | 26 | 0.0 | 0.0 | 0.00 | 1.41 | 0.00 | 90 | 1011.6 |
| 20260903070121 | 69 | 26 | 0.0 | 0.0 | 0.00 | 1.41 | 0.00 | 90 | 1011.8 |
| 20260903065619 | 69 | 26 | 0.0 | 0.0 | 0.00 | 1.41 | 0.00 | 90 | 1011.8 |
| 20260903065133 | 69 | 26 | 0.0 | 0.0 | 0.00 | 1.41 | 0.00 | 90 | 1011.7 |
| 20260903064619 | 69 | 27 | 0.0 | 0.0 | 0.00 | 1.41 | 0.00 | 90 | 1011.8 |
| 20260903064120 | 69 | 27 | 0.0 | 0.0 | 0.00 | 1.41 | 0.00 | 90 | 1011.7 |
| 20260903063618 | 69 | 26 | 0.0 | 0.0 | 0.00 | 1.41 | 0.00 | 90 | 1011.9 |
| 20260903063117 | 69 | 27 | 0.0 | 0.0 | 0.00 | 1.41 | 0.00 | 90 | 1011.7 |
| 20260903062617 | 69 | 26 | 0.0 | 0.0 | 0.00 | 1.41 | 0.00 | 90 | 1011.8 |
| 20260903062118 | 69 | 26 | 0.0 | 0.0 | 0.00 | 1.41 | 0.00 | 90 | 1011.8 |
| 20260903061616 | 69 | 26 | 0.0 | 0.0 | 0.00 | 1.41 | 0.00 | 90 | 1011.7 |
| 20260903061115 | 69 | 25 | 0.0 | 0.0 | 0.00 | 1.41 | 0.00 | 90 | 1011.8 |
| 20260903060617 | 69 | 25 | 0.0 | 0.0 | 0.00 | 1.41 | 0.00 | 90 | 1011.9 |
| 20260903060128 | 69 | 25 | 0.0 | 0.0 | 0.00 | 1.41 | 0.00 | 90 | 1011.9 |
| 20260903055615 | 69 | 25 | 0.0 | 0.0 | 0.00 | 1.41 | 0.00 | 90 | 1011.7 |
| 20260903055115 | 69 | 25 | 0.0 | 0.0 | 0.00 | 1.41 | 0.00 | 90 | 1011.7 |
| 20260903054617 | 69 | 25 | 0.0 | 0.0 | 0.00 | 1.41 | 0.00 | 90 | 1011.8 |
| 20260903054115 | 69 | 25 | 0.0 | 0.0 | 0.00 | 1.41 | 0.00 | 90 | 1012.0 |
| 20260903053611 | 69 | 25 | 0.0 | 0.0 | 0.00 | 1.41 | 0.00 | 90 | 1012.3 |
| 20260903053111 | 69 | 24 | 0.0 | 0.0 | 0.00 | 1.41 | 0.00 | 90 | 1012.3 |
| 20260903052613 | 69 | 24 | 0.0 | 0.0 | 0.00 | 1.41 | 0.00 | 90 | 1012.0 |
| 20260903052111 | 70 | 24 | 0.0 | 0.0 | 0.00 | 1.41 | 0.00 | 90 | 1011.9 |
| 20260903051613 | 70 | 25 | 0.0 | 0.0 | 0.00 | 1.41 | 0.00 | 90 | 1011.6 |
| 20260903051111 | 70 | 25 | 0.0 | 0.0 | 0.00 | 1.41 | 0.00 | 90 | 1011.5 |
| 20260903050609 | 70 | 24 | 0.0 | 0.0 | 0.00 | 1.41 | 0.00 | 90 | 1011.6 |
| 20260903050128 | 70 | 25 | 0.0 | 0.0 | 0.00 | 1.41 | 0.00 | 90 | 1011.5 |
| 20260903045609 | 70 | 24 | 0.0 | 0.0 | 0.00 | 1.41 | 0.00 | 90 | 1011.4 |
| 20260903045129 | 70 | 24 | 0.0 | 0.0 | 0.00 | 1.41 | 0.00 | 90 | 1011.3 |
| 20260903044608 | 70 | 24 | 0.0 | 0.0 | 0.00 | 1.41 | 0.00 | 90 | 1011.2 |
| 20260903044108 | 70 | 24 | 0.0 | 3.0 | 0.00 | 1.41 | 0.00 | 90 | 1011.1 |
| 20260903043608 | 70 | 24 | 0.0 | 3.0 | 0.00 | 1.41 | 0.00 | 90 | 1011.1 |
| 20260903043108 | 70 | 24 | 0.0 | 3.0 | 0.00 | 1.41 | 0.00 | 90 | 1011.2 |
| 20260903042608 | 70 | 22 | 0.0 | 1.0 | 0.00 | 1.41 | 0.00 | 90 | 1011.1 |
| 20260903042105 | 70 | 23 | 0.0 | 2.0 | 0.00 | 1.41 | 0.00 | 90 | 1010.9 |
| 20260903041604 | 70 | 22 | 0.0 | 2.0 | 0.00 | 1.41 | 0.00 | 90 | 1010.8 |
| 20260903041103 | 70 | 22 | 0.0 | 1.0 | 0.00 | 1.41 | 0.00 | 90 | 1010.8 |
| 20260903040604 | 70 | 22 | 0.0 | 0.0 | 0.00 | 1.41 | 0.00 | 90 | 1010.9 |
| 20260903040103 | 70 | 18 | 0.0 | 0.0 | 0.00 | 1.41 | 0.00 | 90 | 1010.9 |
| 20260903035604 | 70 | 20 | 0.0 | 0.0 | 0.00 | 1.41 | 1.41 | 90 | 1010.9 |
| 20260903035102 | 70 | 20 | 0.0 | 0.0 | 0.00 | 1.41 | 1.41 | 90 | 1011.0 |
| 20260903034604 | 70 | 22 | 0.0 | 0.0 | 0.00 | 1.41 | 1.41 | 90 | 1010.9 |
| 20260903034101 | 70 | 23 | 0.0 | 0.0 | 0.00 | 1.41 | 1.41 | 90 | 1011.1 |
| 20260903033556 | 70 | 23 | 0.0 | 0.0 | 0.00 | 1.41 | 1.41 | 90 | 1011.2 |
| 20260903033122 | 70 | 22 | 0.0 | 0.0 | 0.00 | 1.41 | 1.41 | 90 | 1011.3 |
| 20260903032543 | 70 | 22 | 0.0 | 0.0 | 0.00 | 1.41 | 1.41 | 90 | 1011.3 |
| 20260903032041 | 70 | 22 | 0.0 | 0.0 | 0.00 | 1.41 | 1.41 | 90 | 1011.5 |
| 20260903031541 | 70 | 21 | 0.0 | 0.0 | 0.00 | 1.41 | 1.41 | 90 | 1011.6 |
| 20260903031040 | 70 | 21 | 0.0 | 1.0 | 0.00 | 1.41 | 1.41 | 90 | 1011.7 |
| 20260903030540 | 70 | 21 | 0.0 | 5.0 | 0.00 | 1.41 | 1.41 | 90 | 1011.8 |
| 20260903030038 | 70 | 24 | 0.0 | 5.0 | 0.03 | 1.41 | 1.41 | 89 | 1011.8 |
| 20260903025539 | 70 | 22 | 0.0 | 1.0 | 0.03 | 1.41 | 1.41 | 89 | 1011.7 |
| 20260903025035 | 70 | 24 | 0.0 | 5.0 | 0.03 | 1.41 | 1.41 | 89 | 1011.7 |
| 20260903024535 | 70 | 24 | 0.0 | 5.0 | 0.03 | 1.41 | 1.41 | 89 | 1011.8 |
| 20260903024116 | 70 | 24 | 0.0 | 4.0 | 0.04 | 1.41 | 1.41 | 89 | 1011.7 |
| 20260903023533 | 70 | 23 | 0.0 | 4.0 | 0.05 | 1.41 | 1.41 | 89 | 1011.9 |
| 20260903023034 | 69 | 22 | 0.0 | 4.0 | 0.07 | 1.41 | 1.41 | 89 | 1011.8 |
| 20260903022533 | 69 | 20 | 0.0 | 5.0 | 0.07 | 1.41 | 1.41 | 89 | 1012.0 |
| 20260903022118 | 69 | 21 | 0.0 | 5.0 | 0.07 | 1.41 | 1.41 | 89 | 1011.8 |
| 20260903021532 | 69 | 20 | 0.0 | 5.0 | 0.07 | 1.41 | 1.41 | 89 | 1012.1 |
| 20260903021119 | 69 | 23 | 0.0 | 9.0 | 0.07 | 1.41 | 1.41 | 89 | 1012.8 |
| 20260903020532 | 69 | 24 | 0.0 | 9.0 | 0.08 | 1.41 | 1.41 | 89 | 1013.1 |
| 20260903020032 | 69 | 22 | 0.0 | 5.0 | 0.05 | 1.38 | 1.38 | 89 | 1012.5 |